Showing default

GAOFEN 1-02, 43259

Orbit data source: Space-Track

GAOFEN 1-02, 43259 is a payload satellite owned by GGKGJ (CN) in SSO that was launched on Sat, 31 Mar 2018 UTC via a CHANG ZHENG 4C launch vehicle from the Taiyaun Space Center, China (TSC). Payload-class satellites include a variety of spacecraft equipped with specific instruments for various scientific and technological missions. These include communications satellites like Starlink; space stations such as the ISS; scientific satellites like the Hubble; Earth observation satellites from companies like Planet Labs, Umbra, and HawkEye 360; GPS; miniature CubeSats for education and research; and military/defense satellites.

Loading next visibility...
Identifier
43259, 2018-031A
Orbit
SSO
Country
Flag of CNCN / PRC
Related business
Manufacturer
DFH
Mission
Operational Civil Imaging
Bus & Motor
CAST-2000, AOCS
Mass
805 kg wet, ~700 kg dry
Launch date (UTC)
2018-03-31 (8 years ago)
Launch vehicle
CHANG ZHENG 4C
Launch site
Taiyaun Space Center, China (TSC)
Object type
Payload
Rocket body
Debris
Shape & HBR
Box + 2 Pan, 2.0 m
Radar Cross Section
4.991 m², Large (>1 m²)

Expand to show TLE details & history
Last TLE update: 10 hours ago

TLE from 10 hours ago
0 GAOFEN 1-02
1 43259U 18031A   26124.85754593  .00000564  00000-0  88490-4 0  9995
2 43259  98.0550 187.4982 0003957 129.9932 230.1625 14.76457588436300
Epoch: 2026-05-04T20:34Z
TLE epoch observation values (Epoch: 2026-05-04T20:34:51.968Z)
Latitude
-0.00006°
Longitude
16.04095°
Altitude
645.32 km
Speed
7.534 km/s
True Right ascension
12h 29m 59s
True Declination
0° 00' 00"
Sunlit
Object was in full shadow at epoch
Visualization orbit readout
Latitude
Unknown
Longitude
Unknown
Altitude
Unknown
Speed
Unknown
Apparent Right ascension
Unknown
Apparent Declination
Unknown
Sunlit
N/A
Visualization observer readout
Local Sidereal Time
14:38:54
Azimuth
Unknown
Elevation
Unknown
Doppler factor
Unknown
Orbital elements
Apogee altitude
640.357 km
Perigee altitude
634.805 km
Semi-major axis
7,015.718 km
Eccentricity
0.0004
Inclination
98.055°
RAAN
187.4982°
Arg. of periapsis
129.9932°
True anomaly
230.12769°
Mean anomaly
230.1625°
Eccentric anomaly
230.1451°
Mean motion
3.69347 °/min
Orbital period
97.47 mins
BSTAR
0.00008849
Loading maneuver chart data...
Computing Atmospheric mass density...
Loading historical data...
Loading historical data...
Loading historical data...
Loading historical data...
Loading historical data...
Loading historical data...
Loading historical data...

Documentation

Showing up to 5 results
|